TimeEDT,TemperatureF,Dew PointF,Humidity,Sea Level PressureIn,VisibilityMPH,Wind Direction,Wind SpeedMPH,Gust SpeedMPH,PrecipitationIn,Events,Conditions,WindDirDegrees,DateUTC
12:54 AM,46.9,37.0,68,29.68,10.0,West,9.2,-,N/A,,Overcast,260,2012-11-02 04:54:00
1:54 AM,46.9,37.0,68,29.68,10.0,West,9.2,-,N/A,,Overcast,280,2012-11-02 05:54:00
2:54 AM,46.9,37.0,68,29.69,10.0,West,10.4,19.6,N/A,,Overcast,280,2012-11-02 06:54:00
3:54 AM,46.9,37.0,68,29.68,10.0,West,13.8,-,N/A,,Overcast,280,2012-11-02 07:54:00
4:54 AM,46.0,36.0,68,29.68,10.0,West,11.5,18.4,N/A,,Overcast,280,2012-11-02 08:54:00
5:54 AM,46.0,36.0,68,29.68,10.0,West,10.4,16.1,N/A,,Overcast,280,2012-11-02 09:54:00
6:54 AM,45.0,36.0,71,29.69,10.0,West,10.4,-,N/A,,Overcast,270,2012-11-02 10:54:00
7:54 AM,44.1,34.0,68,29.70,10.0,West,8.1,-,N/A,,Overcast,280,2012-11-02 11:54:00
8:54 AM,45.0,34.0,65,29.72,10.0,West,10.4,-,N/A,,Overcast,270,2012-11-02 12:54:00
9:54 AM,45.0,33.1,63,29.73,10.0,West,12.7,-,N/A,,Overcast,270,2012-11-02 13:54:00
10:54 AM,46.9,34.0,61,29.73,10.0,WNW,15.0,20.7,N/A,,Mostly Cloudy,290,2012-11-02 14:54:00
11:54 AM,50.0,35.1,57,29.71,10.0,WNW,10.4,19.6,N/A,,Partly Cloudy,290,2012-11-02 15:54:00
12:54 PM,50.0,34.0,54,29.70,10.0,WNW,13.8,20.7,N/A,,Scattered Clouds,300,2012-11-02 16:54:00
1:54 PM,50.0,34.0,54,29.69,10.0,WNW,10.4,-,N/A,,Mostly Cloudy,290,2012-11-02 17:54:00
2:54 PM,48.0,36.0,63,29.69,10.0,NW,5.8,-,0.00,,Overcast,310,2012-11-02 18:54:00
3:54 PM,48.9,33.1,54,29.71,10.0,West,16.1,25.3,N/A,,Overcast,280,2012-11-02 19:54:00
4:54 PM,48.0,34.0,58,29.72,10.0,WNW,10.4,20.7,N/A,,Overcast,290,2012-11-02 20:54:00
5:54 PM,48.0,33.1,56,29.74,10.0,WNW,11.5,-,N/A,,Overcast,300,2012-11-02 21:54:00
6:54 PM,48.0,32.0,54,29.78,10.0,WNW,10.4,-,N/A,,Overcast,290,2012-11-02 22:54:00
7:54 PM,45.0,34.0,65,29.81,10.0,NW,10.4,19.6,0.00,Rain,Light Rain,310,2012-11-02 23:54:00
8:54 PM,45.0,33.1,63,29.82,10.0,NW,8.1,-,0.00,,Overcast,320,2012-11-03 00:54:00
9:54 PM,45.0,33.1,63,29.83,10.0,NW,12.7,18.4,N/A,,Overcast,310,2012-11-03 01:54:00
10:54 PM,44.1,30.9,60,29.84,10.0,WNW,9.2,-,N/A,,Scattered Clouds,300,2012-11-03 02:54:00
11:54 PM,43.0,28.9,58,29.85,10.0,NW,6.9,-,N/A,,Clear,310,2012-11-03 03:54:00